Terug naar catalogus

COSMOS 1249 COOLANT

LostLEO
NORAD 27571·DEBRIS·🇷🇺 Russia

Gelanceerd Mar 5, 1981 vanaf Baikonur Cosmodrome

Loading…

Volgende Passages (komende 24 uur)

TLE

VerouderdSource: Space-Track

Epoch: May 5, 2024, 12:02 UTC

1 27571U 81021T   24126.50164134  .00000214  00000-0  23817-3 0  9994
2 27571  64.9649 171.2738 0038719 157.2114 203.0679 13.91692868107941

Volg COSMOS 1249 COOLANT in realtime met AllMySat

Download on the App Store